Wind_Speed
24 24 24 25 26 26 25 24 23 23 22 21 21 20 19 19 18 18 16 14 13 13 12 12 12 11 11 10 9 8 8 7 6 6 5 5 5 5 5 5 5 5 5 5 6 6 6 6 6
23 24 25 26 27 27 25 25 25 25 24 23 22 21 21 20 20 19 18 16 15 14 14 13 13 13 13 12 11 11 10 9 8 8 7 7 7 7 7 7 7 7 7 7 7 7 7 7 7
24 25 26 26 27 27 26 27 27 26 25 24 24 23 22 21 21 21 20 18 17 16 16 15 15 14 14 14 13 12 12 11 10 10 9 9 9 9 9 9 9 9 9 8 8 8 8 8 8
24 25 26 27 26 26 27 27 28 28 27 26 25 25 24 23 23 23 22 21 20 19 18 17 16 16 15 15 15 14 14 13 12 12 12 11 10 10 11 11 11 11 11 10 10 10 10 10 10
24 25 26 26 26 26 27 27 28 29 29 28 27 26 25 25 24 25 24 23 22 21 20 19 18 18 18 17 16 16 15 15 14 14 14 13 13 12 13 13 13 12 12 12 12 12 11 12 12
24 25 26 26 26 27 28 28 28 28 29 30 29 28 26 26 26 26 26 25 24 23 22 21 21 20 19 18 17 17 17 17 16 16 16 15 15 14 14 14 14 14 14 13 14 14 13 13 14
24 25 25 25 26 27 27 29 30 30 29 30 31 30 29 28 27 27 27 26 26 26 24 24 23 22 21 20 19 19 19 18 18 18 18 18 17 17 16 16 15 16 16 16 16 16 15 15 15
24 25 25 25 26 27 28 28 29 30 30 31 32 31 30 29 29 28 28 28 28 27 27 26 25 25 23 22 22 21 21 20 20 20 20 20 19 19 18 18 18 18 18 18 17 17 17 16 16
25 25 25 25 26 27 28 29 29 29 29 30 31 32 32 31 30 29 29 29 29 29 28 28 27 26 26 25 24 23 23 22 22 22 21 21 21 21 20 20 20 20 20 20 19 19 19 18 18
26 26 25 25 26 27 28 29 29 30 30 30 30 31 31 32 31 31 31 31 30 30 30 29 29 28 27 26 25 25 24 24 24 24 23 24 23 23 23 22 22 22 22 22 21 21 21 20 20
26 26 25 26 27 28 29 29 30 30 30 30 30 31 32 32 32 32 32 32 31 31 31 30 30 29 29 28 28 27 26 26 26 25 25 26 25 25 25 24 24 24 24 24 23 23 22 22 22
27 26 27 27 28 29 29 30 30 30 30 30 31 32 33 33 33 33 33 33 33 33 32 31 31 31 30 30 30 29 28 27 27 27 27 27 27 27 27 27 26 26 26 25 25 25 25 25 25
27 27 28 28 29 30 30 30 30 30 30 31 32 32 32 33 33 34 35 34 34 34 34 34 33 33 33 32 31 30 29 29 29 29 29 29 29 29 29 29 29 28 27 27 27 27 27 27 27
29 29 29 30 30 31 31 31 31 29 30 32 33 33 33 33 33 34 35 36 36 35 36 36 35 34 34 33 32 31 31 31 30 30 30 30 30 30 31 31 31 30 30 29 29 30 30 30 30
30 30 31 31 31 32 32 32 31 31 32 33 33 34 34 35 34 35 35 36 37 37 37 37 36 36 35 35 34 33 33 33 32 32 32 31 31 32 32 32 32 32 32 31 31 32 32 32 32
30 31 31 31 32 33 34 33 32 33 34 33 33 33 34 35 36 36 36 37 38 39 39 39 39 37 36 36 35 35 35 34 34 33 34 33 33 33 33 33 33 34 34 34 34 34 34 34 34
31 31 31 31 32 33 34 34 33 34 34 34 34 34 34 34 35 35 37 38 38 39 40 40 40 40 39 38 37 36 36 35 35 34 35 34 33 34 34 34 34 35 35 35 36 36 36 35 35
30 31 31 31 31 32 33 33 33 33 34 33 33 34 34 34 34 35 36 38 39 40 41 41 41 42 41 41 39 38 37 36 36 36 35 35 34 34 35 35 36 36 36 36 36 36 36 36 36
29 30 31 31 31 32 33 33 32 32 33 33 33 33 33 34 35 36 36 37 38 39 41 42 41 41 42 41 40 39 38 37 37 37 37 37 36 36 36 36 37 37 37 37 36 36 37 37 37
28 29 30 31 32 32 32 32 31 32 33 33 33 33 33 34 35 36 36 37 38 39 40 40 41 41 41 40 41 41 40 38 38 38 38 38 38 38 37 37 38 38 37 37 37 38 38 38 38
28 28 28 29 31 32 33 32 31 31 32 33 33 32 32 34 34 35 35 36 38 39 39 40 40 41 41 42 42 41 41 40 39 39 39 39 39 39 38 38 38 39 38 38 38 38 39 39 40
27 27 28 28 29 30 31 33 30 31 32 32 33 34 34 34 35 35 36 36 37 38 39 40 41 41 41 42 42 43 42 41 39 39 39 40 40 39 40 40 41 41 40 40 39 40 40 40 40
27 27 28 27 28 29 29 31 29 29 30 31 32 34 34 34 35 35 36 37 37 37 39 40 41 42 41 42 43 43 42 42 42 40 39 40 41 41 42 42 42 42 42 42 41 41 42 42 42
28 27 28 28 28 29 28 30 29 28 28 29 31 32 33 34 35 36 36 37 37 38 39 40 40 42 43 43 43 43 43 43 43 43 41 40 41 42 43 43 43 43 43 43 43 43 42 42 43
27 27 27 28 29 29 28 29 28 27 27 28 29 29 30 32 34 34 35 36 37 39 39 39 41 42 43 43 43 43 43 44 43 43 42 41 41 42 43 45 45 45 44 44 44 44 45 44 43
25 26 27 28 28 28 28 29 27 27 27 28 29 29 29 30 32 33 34 36 37 38 39 39 41 41 42 42 42 43 43 44 44 44 43 42 42 42 43 44 45 45 45 45 45 45 45 45 45
25 25 26 28 29 28 28 28 28 27 27 27 28 28 29 30 31 32 33 34 36 37 38 39 40 41 42 42 42 43 44 44 44 45 44 43 42 42 43 44 45 45 46 47 47 46 46 46 46
26 26 26 27 29 29 28 28 27 26 26 25 26 27 29 30 32 33 34 35 35 36 37 38 40 41 42 43 43 43 44 44 44 44 44 44 44 43 43 44 45 45 46 48 47 47 46 46 46
26 27 27 28 29 29 29 28 27 26 25 26 26 27 28 29 30 32 32 33 34 35 37 38 39 40 41 42 42 43 43 44 45 44 44 45 45 46 45 45 46 47 47 46 46 47 47 47 47
26 27 27 28 29 29 29 28 26 26 26 26 27 27 27 28 29 30 31 31 32 34 35 36 38 39 40 41 42 43 43 43 44 44 45 45 46 47 47 46 47 47 48 48 48 48 48 49 48
Wind_Direction
254 253 251 249 249 247 245 242 242 242 242 244 245 246 246 245 244 243 241 240 240 239 240 242 244 242 237 237 238 237 237 239 242 244 249 253 258 265 276 278 274 278 283 287 289 288 287 285 283
255 254 252 250 249 248 245 242 241 241 241 241 242 243 244 244 243 243 241 240 240 240 240 242 244 242 241 240 241 239 240 242 246 249 251 256 258 264 265 269 273 275 278 283 283 285 286 283 277
256 254 253 252 250 247 245 242 241 241 241 241 241 241 242 243 242 241 241 240 240 241 241 243 244 243 242 241 240 239 240 242 245 251 253 257 260 262 262 263 269 272 275 278 280 283 283 279 274
257 255 253 251 248 245 244 244 244 243 242 242 242 241 241 242 241 240 240 240 241 241 242 245 245 243 241 242 241 241 241 243 245 250 253 256 258 260 262 264 268 269 271 273 276 279 279 276 272
258 256 254 251 248 245 243 245 246 246 244 243 242 241 241 241 241 241 240 240 241 241 243 244 244 242 240 241 241 242 244 245 247 250 253 255 258 261 263 266 266 266 267 270 273 275 276 274 272
259 257 254 251 247 245 245 245 246 246 245 244 243 242 242 243 242 241 241 241 241 241 243 244 243 242 241 242 242 243 245 247 250 252 253 255 258 261 264 264 264 266 268 270 272 272 274 274 272
260 257 254 250 247 246 246 246 246 246 245 244 244 243 243 244 244 243 241 241 241 241 242 243 243 243 244 244 245 246 248 249 251 253 254 255 258 261 262 262 264 266 267 270 271 272 272 272 272
261 259 254 251 248 246 246 247 246 245 246 245 245 244 243 243 243 243 242 242 242 242 242 243 243 243 244 245 247 249 250 251 252 255 256 256 257 260 261 260 262 264 266 268 270 271 271 270 270
260 258 257 254 250 249 248 248 245 245 245 245 246 245 244 243 242 243 243 242 242 242 242 243 244 244 246 248 249 250 251 253 253 256 258 257 257 258 260 260 261 263 265 267 269 269 269 269 269
260 259 258 256 254 250 248 248 246 245 245 245 246 246 244 244 244 244 243 243 243 242 242 242 243 244 247 249 250 250 252 253 254 256 257 258 257 257 258 258 259 262 264 266 267 268 268 268 269
261 260 259 257 255 251 248 247 246 246 245 245 245 246 246 246 245 244 243 243 242 242 243 243 243 244 247 250 251 252 253 254 255 257 257 257 256 257 257 257 258 260 262 264 265 265 265 267 269
261 259 259 259 257 254 250 248 247 246 246 245 245 245 246 247 247 246 244 244 242 241 242 244 244 245 246 248 250 252 253 254 256 258 258 257 257 257 256 257 258 260 262 264 264 264 265 266 268
262 260 260 259 258 256 252 249 248 248 248 247 247 247 247 248 248 246 245 245 244 242 242 243 245 246 245 246 248 250 253 254 257 259 259 258 258 258 257 258 259 260 261 263 264 264 266 267 267
264 262 261 259 258 257 255 251 250 249 249 249 248 248 248 248 248 248 247 245 245 244 244 243 245 246 245 245 248 251 253 255 258 260 260 258 258 258 258 258 259 261 261 262 264 266 266 267 267
264 262 260 258 258 257 256 253 251 250 250 250 250 250 249 249 249 250 248 247 246 245 245 245 246 246 247 248 250 252 254 256 259 261 261 260 260 260 258 258 259 260 261 263 264 265 265 266 266
264 263 261 259 258 258 256 254 251 251 251 251 251 251 251 250 250 250 248 247 246 245 245 245 246 247 248 249 251 253 255 257 260 260 260 261 261 261 259 259 259 260 261 263 263 264 265 265 265
264 264 262 260 259 258 257 255 252 251 252 252 252 252 252 251 251 250 249 248 246 245 245 245 246 247 248 249 251 252 255 257 259 259 260 260 261 261 260 260 261 261 262 263 264 264 265 265 265
266 264 262 262 260 258 256 255 253 251 252 252 252 252 252 252 252 251 250 250 248 247 245 246 247 247 249 250 251 251 252 255 257 258 259 260 261 261 261 261 261 261 262 263 264 264 264 264 264
264 262 260 260 260 258 256 255 254 251 252 252 253 254 253 253 253 252 251 250 249 248 247 246 247 248 249 249 250 251 252 253 254 256 257 258 260 260 260 261 262 262 263 264 265 264 264 264 264
264 263 262 260 259 258 256 254 254 253 253 253 254 255 255 254 254 254 252 251 250 249 247 247 247 248 248 248 250 251 252 253 253 255 257 258 259 259 259 260 262 264 265 265 265 264 264 264 265
264 264 264 263 260 258 257 254 253 255 256 256 256 256 256 256 255 255 254 253 250 249 247 246 247 248 248 249 249 251 253 254 255 255 256 257 259 260 260 261 262 264 265 265 266 265 265 265 265
264 264 264 263 262 259 259 258 253 255 256 258 257 257 258 257 256 254 253 253 251 249 246 245 246 247 248 248 250 252 253 254 255 257 257 257 259 260 260 262 263 263 264 266 267 267 266 266 267
264 264 264 264 263 261 258 260 256 257 257 258 259 259 260 258 256 255 253 252 252 249 245 245 246 248 248 249 251 252 253 254 256 257 258 259 260 260 260 261 263 264 265 267 267 268 268 268 268
263 263 263 262 262 261 259 262 262 260 260 260 261 261 260 257 256 255 253 251 250 247 245 245 246 247 247 250 250 251 253 254 257 259 260 260 260 261 261 262 263 265 266 267 268 269 269 269 269
264 264 264 262 261 263 262 263 265 264 262 262 263 262 261 259 257 255 252 250 248 247 246 247 247 247 248 250 251 252 253 255 257 260 262 261 261 261 262 262 263 266 266 267 267 268 269 269 269
264 264 264 265 266 267 265 265 266 266 265 264 264 263 263 260 258 256 252 250 248 247 248 248 248 247 249 250 252 253 254 256 257 259 261 263 263 263 263 263 264 265 266 267 267 268 269 269 269
263 263 264 265 267 269 268 268 267 268 268 267 264 264 264 261 259 257 255 253 250 249 249 249 249 249 251 253 255 255 255 256 258 259 260 262 264 264 264 263 263 265 267 268 268 269 268 268 269
260 261 263 265 267 269 269 270 271 269 270 270 267 267 266 264 261 258 256 253 251 250 252 252 251 251 252 254 256 256 256 256 258 259 260 261 262 265 266 265 265 266 267 267 268 268 268 267 267
258 258 260 265 267 270 271 271 272 272 272 271 271 270 269 266 264 260 256 254 253 253 253 254 253 253 255 255 256 257 257 257 258 259 260 261 263 265 267 268 269 268 268 268 268 268 267 267 267
260 259 260 264 265 268 271 272 272 273 274 273 273 272 271 268 265 261 258 257 258 258 257 257 257 258 259 258 257 257 257 258 260 260 261 262 264 266 268 269 269 270 269 269 270 269 268 268 268
Height
5804 5805 5806 5808 5810 5811 5813 5816 5818 5820 5821 5823 5825 5826 5828 5830 5833 5836 5837 5837 5838 5839 5840 5841 5842 5843 5845 5846 5847 5848 5849 5850 5851 5852 5852 5853 5854 5854 5855 5855 5856 5856 5857 5857 5857 5858 5858 5858 5858
5799 5800 5802 5803 5804 5806 5809 5811 5813 5815 5817 5819 5820 5822 5824 5826 5828 5830 5832 5833 5835 5837 5838 5839 5840 5841 5843 5844 5845 5846 5847 5848 5849 5850 5851 5851 5852 5853 5853 5854 5854 5855 5855 5855 5856 5856 5856 5856 5857
5794 5795 5796 5797 5798 5802 5804 5805 5807 5809 5812 5814 5816 5818 5820 5822 5824 5826 5828 5830 5832 5834 5835 5837 5838 5839 5840 5841 5842 5843 5845 5846 5847 5848 5848 5849 5850 5851 5851 5852 5853 5853 5853 5854 5854 5854 5854 5854 5855
5789 5790 5791 5792 5794 5797 5799 5800 5802 5804 5806 5809 5811 5813 5815 5818 5819 5821 5824 5826 5828 5830 5832 5834 5835 5836 5837 5838 5840 5841 5842 5843 5844 5845 5846 5847 5848 5848 5849 5850 5850 5850 5851 5851 5851 5852 5852 5852 5853
5783 5784 5785 5786 5789 5791 5793 5795 5797 5799 5801 5803 5806 5808 5810 5813 5815 5817 5820 5822 5824 5827 5828 5830 5831 5833 5834 5835 5837 5838 5839 5841 5842 5842 5843 5844 5845 5845 5846 5847 5847 5848 5848 5848 5849 5849 5849 5850 5850
5778 5778 5780 5781 5784 5786 5788 5789 5791 5793 5795 5797 5800 5803 5806 5808 5810 5812 5815 5818 5820 5822 5824 5826 5828 5829 5830 5832 5834 5835 5836 5837 5838 5839 5840 5841 5842 5842 5843 5843 5844 5845 5845 5845 5846 5846 5846 5847 5847
5773 5773 5774 5776 5778 5781 5783 5784 5785 5787 5790 5792 5794 5797 5800 5803 5805 5808 5810 5813 5815 5818 5820 5822 5824 5825 5826 5828 5830 5831 5832 5834 5835 5836 5836 5837 5838 5839 5839 5840 5841 5841 5842 5842 5842 5843 5843 5843 5843
5767 5768 5769 5771 5773 5775 5777 5778 5780 5782 5784 5787 5789 5792 5795 5798 5800 5802 5805 5807 5810 5812 5815 5817 5819 5820 5822 5824 5825 5827 5828 5829 5830 5831 5832 5833 5834 5835 5835 5836 5837 5837 5838 5838 5838 5839 5839 5839 5840
5762 5764 5764 5766 5768 5770 5771 5772 5774 5776 5779 5781 5783 5786 5789 5791 5794 5797 5800 5802 5804 5807 5809 5811 5813 5815 5817 5819 5820 5822 5823 5825 5826 5827 5828 5829 5829 5830 5831 5832 5832 5833 5834 5834 5834 5835 5835 5835 5836
5757 5758 5760 5761 5762 5764 5765 5766 5768 5770 5773 5775 5778 5780 5782 5785 5788 5791 5793 5796 5799 5801 5803 5806 5808 5810 5812 5814 5815 5817 5818 5819 5821 5822 5823 5823 5824 5825 5826 5827 5828 5828 5829 5829 5830 5830 5831 5831 5831
5752 5753 5754 5755 5755 5757 5759 5760 5762 5764 5767 5769 5771 5774 5776 5779 5782 5785 5787 5790 5792 5795 5797 5799 5802 5804 5806 5808 5810 5811 5813 5814 5815 5816 5817 5818 5818 5819 5820 5821 5822 5823 5823 5824 5824 5825 5826 5826 5826
5747 5747 5748 5749 5749 5750 5752 5754 5756 5758 5761 5762 5764 5767 5770 5772 5775 5778 5781 5783 5786 5788 5790 5792 5795 5798 5800 5802 5804 5806 5807 5808 5809 5810 5811 5811 5812 5813 5814 5815 5816 5817 5818 5818 5819 5819 5820 5821 5821
5740 5741 5742 5742 5743 5744 5746 5747 5749 5752 5754 5756 5758 5760 5763 5766 5768 5771 5773 5776 5779 5781 5784 5786 5789 5791 5793 5795 5797 5799 5800 5802 5803 5804 5804 5805 5805 5806 5807 5809 5809 5810 5811 5812 5813 5813 5814 5814 5815
5735 5735 5735 5736 5736 5737 5739 5741 5743 5746 5747 5749 5751 5754 5756 5758 5761 5763 5766 5768 5771 5774 5776 5779 5781 5783 5786 5788 5790 5792 5794 5795 5796 5796 5797 5797 5798 5799 5800 5801 5802 5803 5804 5805 5806 5806 5807 5808 5808
5728 5728 5729 5730 5730 5731 5732 5734 5737 5739 5740 5742 5744 5746 5748 5751 5753 5756 5758 5760 5763 5766 5769 5771 5773 5776 5779 5781 5783 5785 5786 5788 5789 5789 5789 5790 5791 5791 5792 5793 5795 5796 5797 5798 5798 5799 5800 5800 5801
5721 5721 5722 5723 5723 5723 5726 5728 5731 5731 5732 5734 5736 5738 5740 5742 5745 5747 5749 5752 5754 5757 5760 5763 5766 5768 5771 5773 5775 5777 5779 5780 5781 5782 5782 5782 5783 5783 5784 5785 5787 5788 5789 5790 5790 5791 5792 5793 5793
5713 5714 5715 5716 5716 5716 5717 5720 5723 5723 5725 5727 5729 5731 5732 5734 5736 5738 5740 5742 5745 5748 5751 5755 5758 5760 5762 5765 5767 5769 5771 5772 5773 5774 5774 5775 5775 5776 5777 5778 5779 5780 5781 5781 5782 5782 5783 5784 5785
5707 5707 5707 5708 5708 5709 5710 5712 5715 5716 5717 5719 5721 5723 5724 5726 5728 5729 5731 5733 5735 5738 5742 5745 5749 5751 5754 5756 5758 5760 5762 5763 5764 5765 5766 5767 5768 5768 5769 5770 5770 5771 5772 5772 5772 5773 5774 5775 5776
5698 5699 5699 5701 5701 5701 5702 5705 5708 5709 5710 5712 5713 5715 5717 5718 5719 5720 5722 5724 5726 5729 5732 5735 5739 5742 5745 5747 5750 5752 5753 5755 5756 5757 5758 5759 5760 5761 5761 5762 5763 5763 5764 5764 5764 5765 5765 5766 5767
5691 5692 5692 5693 5693 5694 5695 5697 5700 5701 5702 5704 5705 5707 5708 5709 5710 5712 5713 5715 5716 5719 5722 5725 5729 5732 5735 5738 5741 5743 5745 5746 5747 5748 5749 5750 5751 5752 5753 5754 5754 5755 5755 5755 5756 5756 5756 5757 5757
5685 5685 5686 5686 5686 5687 5688 5690 5694 5695 5695 5696 5698 5698 5699 5700 5701 5702 5703 5705 5707 5709 5713 5716 5719 5723 5726 5729 5731 5733 5736 5737 5738 5739 5740 5742 5743 5744 5744 5745 5746 5746 5747 5747 5747 5747 5747 5748 5748
5678 5679 5679 5679 5679 5680 5682 5682 5687 5688 5689 5689 5690 5690 5691 5691 5692 5693 5694 5696 5698 5700 5703 5706 5710 5713 5716 5719 5721 5724 5726 5729 5730 5731 5732 5733 5734 5734 5735 5736 5736 5737 5738 5738 5738 5738 5738 5738 5739
5672 5672 5672 5672 5672 5674 5675 5675 5680 5681 5682 5682 5682 5682 5682 5682 5683 5684 5685 5686 5689 5691 5694 5697 5701 5704 5707 5710 5712 5715 5717 5719 5721 5721 5722 5723 5724 5725 5726 5726 5727 5727 5728 5728 5728 5728 5729 5729 5729
5665 5666 5665 5665 5665 5667 5669 5668 5671 5674 5674 5674 5674 5674 5673 5673 5674 5675 5676 5678 5680 5682 5685 5688 5692 5695 5698 5701 5703 5705 5707 5709 5711 5712 5713 5714 5715 5716 5716 5717 5717 5717 5717 5718 5718 5718 5718 5718 5719
5659 5660 5659 5658 5659 5660 5662 5662 5665 5666 5666 5666 5666 5666 5665 5665 5665 5666 5667 5669 5671 5673 5675 5679 5682 5686 5688 5691 5693 5695 5697 5699 5701 5702 5703 5704 5705 5706 5706 5706 5707 5707 5707 5707 5707 5707 5708 5708 5708
5652 5653 5654 5653 5653 5654 5654 5655 5659 5659 5659 5658 5658 5658 5657 5657 5657 5658 5659 5660 5662 5664 5667 5670 5672 5676 5678 5681 5683 5685 5687 5689 5691 5692 5693 5694 5694 5695 5695 5696 5696 5696 5696 5696 5696 5696 5696 5696 5696
5646 5646 5647 5647 5646 5647 5647 5650 5652 5652 5652 5652 5651 5650 5650 5650 5650 5651 5651 5652 5653 5656 5658 5661 5663 5665 5668 5671 5673 5675 5676 5678 5680 5681 5682 5683 5684 5684 5684 5685 5685 5685 5685 5685 5685 5685 5685 5685 5684
5640 5640 5641 5640 5639 5639 5641 5643 5645 5645 5645 5645 5644 5644 5643 5642 5642 5643 5643 5644 5646 5647 5649 5651 5653 5656 5658 5660 5662 5664 5665 5667 5669 5670 5671 5672 5673 5673 5673 5673 5673 5673 5673 5673 5673 5673 5672 5672 5672
5633 5634 5634 5633 5633 5634 5634 5639 5639 5639 5638 5638 5638 5637 5636 5636 5635 5635 5636 5637 5638 5639 5641 5642 5644 5646 5648 5649 5651 5653 5654 5656 5657 5658 5660 5660 5661 5661 5662 5662 5661 5661 5661 5660 5660 5660 5660 5660 5659
5626 5627 5627 5628 5628 5628 5628 5634 5632 5632 5632 5631 5631 5630 5629 5629 5629 5629 5629 5629 5630 5631 5632 5634 5635 5637 5637 5639 5640 5641 5643 5644 5645 5647 5648 5648 5649 5650 5650 5649 5649 5648 5648 5648 5647 5647 5647 5646 5646